STARLINK-3230 (50845 NORAD) Tracking and Keplerian Element Data
This shows tracking and keplerian element data for the satellite.
Feedback or suggestion? Click here.
Element | Value |
Catalog | 50845 |
Name | STARLINK-3230 |
Epoch Orbit | 2184 |
Epoch Day | 140.91667824 |
Epoch Year | 2022 |
RAAN | 293.5552 |
Inclination | 53.2179 |
Eccentricity | 0.0001555 |
Argument of Perigee | 53.0682 |
Mean Anonmoly | 290.0475 |
Mean Motion | 15.08828357 |
Decay Rate | 6.945E-05 |
L1 | 1 50845U 22001AU 22140.91667824 .00006945 00000+0 45415-3 0 9994 |
L2 | 2 50845 53.2179 293.5552 0001555 53.0682 290.0475 15.08828357 21841 |
Live tracking and technical data element details for STARLINK-3230 (NORAD 50845). STARLINK-3230 can be tracked NOW for your location showing map with azimuth and elevation plus other details from your city location.
Track the satellite on the map from your city or location and see movement details for azimuth, elevation, latitude, longitude, range, height, and movement on the map or in text.
IsCatalogInMostPopularTable: catalog: 50845, numindb: 24
Update: records affected: 1
GetName: 50845 STARLINK-3230
Hit Count: updated at: Mon, 23 May 2022 21:42:13 GMT